Theta_e
339 334 332 333 335 343 342 344 345 345 343 341 341 343 342 341 340 342 340 343 340 339 340 334 331 329 331 331 333 335 337 338 338 338 339 339 337 336 332 332 332 332 332
341 340 337 337 342 342 342 343 345 344 344 343 343 343 343 340 342 341 341 343 342 338 338 334 332 332 334 334 336 337 337 338 338 339 339 339 339 338 334 333 333 333 333
340 338 340 339 340 342 343 344 343 344 343 341 342 338 339 340 338 342 341 342 341 337 337 335 335 332 333 336 336 337 337 338 338 338 339 338 339 339 335 332 332 335 334
339 340 340 338 344 344 346 345 341 344 345 345 344 342 342 342 339 339 341 341 342 338 338 335 336 336 337 338 339 339 339 340 340 340 339 339 339 339 337 331 320 320 322
339 339 341 341 342 345 345 346 345 344 348 346 346 343 340 341 344 343 343 342 343 341 338 340 337 337 338 340 340 340 338 339 339 340 339 339 339 339 338 333 319 318 320
336 341 344 340 343 346 346 343 347 347 344 346 346 342 339 342 342 342 344 345 342 344 342 339 343 341 339 337 340 340 339 338 339 338 339 339 339 339 339 336 327 318 320
339 340 342 341 341 342 345 345 344 344 341 347 345 343 341 342 344 344 343 345 345 345 344 344 342 344 343 341 337 338 338 340 341 339 339 339 339 338 339 339 332 319 321
340 344 342 344 342 341 339 342 343 342 339 346 346 343 342 343 343 344 344 345 344 345 342 345 344 344 343 342 341 340 340 341 340 338 339 339 338 338 338 339 334 327 320
342 340 343 342 342 341 341 338 342 343 339 344 347 343 344 344 344 343 344 344 345 345 344 344 344 343 343 343 342 342 341 341 340 337 337 338 337 338 338 339 338 332 321
344 343 343 344 340 338 342 336 341 345 344 344 348 343 345 345 346 345 345 344 344 345 345 346 345 342 345 345 343 342 342 341 341 338 337 340 342 341 341 339 339 337 332
343 343 344 345 341 339 340 339 342 344 345 341 347 345 344 345 345 346 347 346 345 346 345 345 345 343 344 343 345 344 343 341 341 339 336 336 338 340 341 344 342 340 338
343 344 344 345 345 345 341 341 338 342 346 343 345 347 343 345 347 346 346 346 344 345 344 345 345 345 344 345 346 346 345 342 341 341 340 340 341 340 338 339 343 343 341
342 342 343 344 346 344 345 345 337 343 345 343 344 345 342 344 345 346 346 345 345 346 346 346 346 346 345 346 345 345 346 344 342 342 341 340 341 341 338 337 340 343 342
343 342 344 344 346 344 344 345 343 344 345 344 341 344 344 343 347 346 344 347 346 346 346 347 347 346 346 342 346 346 345 345 345 343 342 340 340 341 338 337 340 341 343
342 344 344 341 345 345 341 341 342 346 344 344 343 342 345 345 346 347 345 346 347 347 346 346 346 346 346 343 343 347 344 344 345 344 342 342 341 341 340 338 338 341 341
340 341 342 344 343 344 346 343 339 342 342 342 345 345 344 344 347 346 346 345 347 347 347 343 344 345 346 346 346 347 346 345 345 345 343 345 343 341 340 339 337 337 338
340 339 341 342 344 345 345 345 346 344 340 345 346 344 345 345 345 345 347 347 348 346 348 348 345 345 347 347 347 346 347 347 346 347 345 346 344 341 340 340 339 337 336
344 342 340 343 343 345 345 346 346 346 344 343 345 348 343 348 345 345 346 347 347 346 346 348 347 346 346 346 347 348 347 348 347 345 345 344 345 342 341 341 340 338 337
340 342 343 341 345 343 344 342 341 345 344 345 345 345 345 345 344 346 345 346 346 347 346 349 349 347 346 347 347 347 347 347 347 347 346 345 344 342 341 340 340 339 338
339 339 340 339 341 343 344 344 345 343 343 344 344 346 347 348 346 346 347 347 348 348 348 347 345 347 347 346 345 345 346 346 345 345 345 344 344 341 339 340 339 338 337
341 340 340 339 337 343 345 344 345 345 344 344 345 345 345 344 344 344 344 347 348 348 348 346 345 345 345 344 343 344 345 345 344 342 342 342 342 339 339 338 338 336 335
342 344 343 340 337 340 342 343 343 343 343 341 341 341 343 344 345 345 343 344 345 345 346 347 347 343 343 343 343 343 344 344 343 341 342 341 339 338 337 337 336 334 333
344 342 344 344 340 340 342 343 344 344 346 344 345 344 344 344 344 345 344 344 344 345 344 343 344 345 345 343 343 343 343 343 341 340 342 341 339 336 335 334 333 331 329
342 342 343 347 346 343 345 348 347 347 347 348 347 345 345 344 345 344 347 344 341 343 343 344 345 344 343 343 342 342 341 341 342 340 339 339 336 335 334 332 328 322 320
339 340 343 345 346 344 344 346 346 345 346 347 349 349 347 345 344 346 347 345 345 344 344 343 345 343 344 343 342 341 340 339 340 340 339 337 336 334 332 325 318 315 317
343 344 342 345 345 345 343 343 343 344 343 345 346 345 345 347 346 344 347 345 346 346 347 345 343 343 344 343 341 339 338 339 339 339 337 335 334 333 325 317 316 314 313
Wind_Speed
8 9 9 9 9 6 4 3 1 3 4 4 7 5 6 5 6 5 2 1 2 0 3 5 5 5 5 6 7 7 5 5 4 3 3 4 6 8 10 12 14 14 14
5 7 11 10 5 3 3 0 3 3 5 8 6 7 5 6 1 6 5 2 2 1 4 7 8 7 6 6 6 4 3 2 0 2 4 5 6 7 8 11 13 14 16
4 4 6 5 4 5 1 2 4 5 4 7 9 7 6 4 4 5 4 4 3 4 5 6 7 7 5 4 3 2 1 1 2 3 5 5 6 6 5 8 11 13 15
6 5 5 4 7 3 1 0 4 3 6 7 8 8 9 8 7 2 2 4 2 3 5 5 6 5 4 3 2 1 1 3 4 4 4 4 5 5 5 5 7 9 12
6 6 6 6 5 2 1 1 3 5 8 8 10 8 10 3 1 2 3 3 2 2 4 5 3 3 2 2 1 3 4 4 5 5 4 5 4 4 3 4 4 6 8
7 8 5 7 5 2 2 2 2 6 7 9 11 9 2 2 2 1 3 2 2 4 3 2 2 3 0 2 3 4 4 5 4 3 3 4 4 4 4 4 3 4 5
6 5 4 5 3 5 6 4 6 7 7 8 10 7 5 5 3 4 2 2 1 1 2 1 2 2 2 1 2 3 4 5 6 4 3 3 3 3 3 3 3 3 4
7 5 6 5 5 4 6 7 9 9 5 5 8 7 3 4 4 4 4 2 1 2 3 3 1 1 1 2 2 2 3 5 5 4 3 3 3 3 2 2 2 2 2
5 6 8 7 7 6 7 8 9 7 4 5 5 5 3 4 5 3 2 2 3 4 4 4 2 2 2 1 2 3 3 4 4 4 4 4 2 2 2 2 1 2 1
5 5 7 7 9 10 11 12 10 7 5 4 3 2 3 6 3 4 4 4 4 4 2 2 3 4 3 4 3 3 4 4 4 6 5 3 2 1 1 1 2 1 2
8 8 8 8 8 9 10 10 9 7 7 5 5 2 3 5 5 4 3 4 6 7 6 4 3 5 3 4 5 4 5 5 3 4 5 5 4 3 3 5 3 2 1
10 9 10 11 9 9 9 10 10 8 7 8 8 5 5 3 4 3 5 7 8 6 7 6 5 7 8 5 5 6 5 4 3 3 4 4 5 5 5 5 6 5 2
14 13 14 12 10 9 9 10 9 10 8 8 9 8 8 8 6 6 7 8 9 10 7 8 7 8 9 9 6 7 6 4 5 4 4 4 5 6 6 4 6 7 5
10 11 13 14 12 10 10 10 8 11 12 10 10 10 9 9 9 9 9 8 9 10 9 7 7 9 8 8 13 9 7 5 6 6 5 5 5 6 6 5 2 5 5
11 11 13 12 11 9 10 10 10 10 10 11 10 11 11 10 11 13 11 9 9 9 11 8 6 8 9 10 8 9 7 7 7 6 4 5 6 7 6 5 2 3 4
19 16 15 15 15 15 13 12 10 11 12 11 10 9 11 11 11 12 12 11 10 8 7 6 7 8 10 7 9 9 7 6 8 7 5 6 6 6 5 4 4 3 5
22 22 16 17 16 17 15 16 14 14 14 12 11 11 12 14 13 12 13 11 9 10 11 8 6 5 5 7 7 9 8 8 9 9 8 8 7 6 5 4 4 4 4
25 23 22 19 19 16 16 19 19 18 17 16 14 14 13 13 14 14 15 16 15 13 13 12 10 9 8 9 8 10 11 11 11 10 10 11 9 6 5 7 6 6 5
29 26 24 24 24 22 18 16 16 18 20 19 18 18 15 16 19 16 16 15 16 15 13 12 11 12 12 13 13 14 14 14 13 11 13 13 12 8 7 9 6 6 5
26 27 25 24 23 21 20 18 16 19 19 20 20 19 17 18 18 16 16 17 17 17 17 17 16 16 15 16 15 15 15 14 11 13 14 14 14 8 7 8 8 6 7
25 23 25 26 23 24 22 21 22 20 21 22 22 21 21 20 19 19 19 19 19 19 20 18 17 16 17 17 16 15 15 13 13 14 16 14 11 9 8 9 9 7 7
27 22 22 24 25 24 23 20 20 21 22 23 25 24 22 21 21 20 19 19 20 20 20 20 19 18 18 18 17 16 16 14 15 15 17 13 11 10 9 8 7 4 5
24 23 21 22 24 24 24 23 23 24 23 24 25 24 23 23 23 23 21 21 20 20 21 22 24 23 22 19 18 18 17 15 14 16 13 14 14 11 8 6 6 5 4
23 25 25 22 22 22 20 21 22 22 24 25 25 26 27 26 25 26 25 23 21 21 21 24 25 22 20 19 18 17 15 15 16 16 16 16 13 9 7 6 5 4 5
18 21 26 26 26 26 24 24 23 25 27 27 27 28 28 29 28 26 28 28 27 25 23 22 22 22 21 20 19 18 19 17 17 18 16 12 11 10 9 8 7 7 6
22 21 23 25 24 26 26 27 26 25 28 31 30 30 32 32 30 31 32 32 35 33 29 26 26 25 24 23 21 20 18 18 19 18 17 15 12 12 11 12 11 9 9
Wind_Direction
130 146 152 160 148 136 124 115 348 331 333 342 325 339 12 348 343 14 353 45 343 265 104 109 102 105 111 131 134 140 159 166 178 213 265 283 271 265 257 251 248 245 243
136 144 156 166 167 161 136 115 319 350 330 334 325 324 346 7 357 36 77 73 32 56 124 121 111 106 127 134 122 142 148 126 194 282 283 276 275 278 275 259 248 244 241
154 158 171 188 183 154 138 344 305 329 2 11 1 22 13 323 19 42 51 55 50 81 115 122 115 122 133 124 125 161 151 240 263 265 267 268 270 261 258 262 247 243 242
158 150 202 200 156 150 101 249 352 43 6 4 1 13 336 324 324 176 123 92 73 89 110 113 130 133 132 145 163 313 342 326 301 290 276 268 272 289 292 283 247 243 242
192 165 166 167 168 166 98 124 32 3 8 349 354 350 336 351 10 118 147 123 96 83 98 99 138 145 150 219 278 348 341 338 318 301 293 290 292 291 310 306 262 243 238
151 144 155 177 186 188 211 229 327 337 348 340 349 348 5 61 16 223 199 178 175 74 38 120 122 95 299 319 302 316 340 332 326 318 288 301 301 299 308 316 289 252 233
175 175 176 204 212 224 257 293 313 321 324 337 343 353 34 5 330 310 197 172 177 121 306 352 112 102 70 8 309 319 335 345 344 334 320 296 293 288 296 321 323 282 253
183 187 213 217 231 265 281 286 300 304 295 319 341 349 6 356 26 111 120 189 353 352 322 251 83 158 42 35 35 350 337 339 343 342 333 311 287 267 274 317 335 316 274
203 221 238 252 263 278 289 297 291 301 270 289 327 2 354 8 335 262 253 270 290 286 308 226 226 229 262 301 352 3 344 343 356 8 359 334 298 280 259 265 337 359 333
234 259 250 266 280 267 281 292 283 294 277 269 308 324 4 344 317 332 322 272 276 250 261 284 231 222 253 262 289 330 346 353 9 11 20 17 336 342 310 280 288 350 34
254 277 263 276 284 262 273 284 270 284 270 264 279 303 310 330 312 296 339 342 340 251 247 251 260 215 245 277 267 295 337 349 11 28 27 27 11 338 283 267 287 290 350
256 264 262 272 279 279 268 282 261 269 265 262 263 277 290 285 290 296 302 310 307 289 245 245 267 234 223 266 281 278 315 330 344 18 23 9 1 349 323 286 256 256 280
257 258 261 269 283 267 268 295 254 247 258 265 265 278 288 268 270 286 300 300 292 289 269 236 246 229 225 254 285 284 288 301 330 333 342 346 346 346 342 306 258 239 245
255 255 257 262 264 268 264 282 254 250 253 261 272 272 282 276 260 265 285 286 300 287 273 254 249 228 238 275 266 288 271 269 297 317 326 336 342 347 360 3 291 250 237
239 245 259 261 258 263 269 274 258 258 253 255 260 264 275 281 275 257 267 268 286 295 279 267 251 249 264 308 230 263 254 258 273 301 302 329 338 341 345 352 340 258 247
244 244 254 252 260 261 265 269 266 256 252 253 256 261 269 275 277 263 262 262 259 277 293 282 266 256 266 270 244 249 266 273 278 290 279 303 319 323 320 325 326 308 289
249 246 253 245 251 265 249 257 264 259 250 250 254 260 274 275 267 266 255 257 259 276 278 286 278 278 262 261 265 253 273 283 285 277 273 286 302 317 317 310 304 294 289
251 250 247 248 243 258 250 259 256 256 255 254 261 267 274 273 273 264 258 257 263 271 277 274 269 272 262 272 280 260 268 278 282 279 277 279 275 281 292 303 291 279 275
250 252 249 249 249 255 255 256 263 261 255 261 265 267 275 277 271 275 265 262 260 266 272 273 270 265 265 271 273 271 272 273 276 276 279 278 261 255 275 277 282 279 274
250 246 248 253 252 252 248 251 263 268 260 263 262 264 270 281 274 268 270 261 262 264 268 274 269 264 264 268 270 271 270 272 287 288 281 278 281 248 259 273 262 265 270
246 249 252 251 247 249 252 257 262 271 262 265 264 270 271 276 275 270 267 265 265 266 266 266 266 264 263 268 274 275 269 265 274 277 276 291 263 248 262 273 263 257 252
246 245 253 254 249 248 253 258 263 270 269 266 268 271 270 271 271 272 267 268 272 271 264 263 264 262 266 267 269 265 262 256 258 264 265 258 253 263 261 269 272 234 250
243 244 246 251 252 253 257 262 263 263 267 267 267 267 268 268 267 267 264 266 269 264 262 261 259 262 264 264 267 265 260 249 255 262 256 251 252 246 258 254 220 215 219
248 246 252 253 255 253 254 263 261 262 267 266 267 266 266 266 266 261 263 264 260 261 264 261 260 262 261 262 266 267 262 250 244 247 254 246 236 237 220 221 212 216 206
255 260 251 250 252 257 263 266 266 263 261 265 267 267 266 266 262 260 257 260 262 263 265 262 258 259 256 259 262 255 247 242 230 241 238 228 224 214 199 199 192 184 167
258 257 246 245 254 259 265 264 266 265 268 265 267 271 268 265 265 259 258 260 261 260 260 261 260 260 257 259 258 250 240 235 227 230 226 215 216 203 186 184 176 165 153